Location: Finney State Fishing Lake and Wildlife Area
(38.1834°N, 100.3310°W)
Time: 13:03:43
(UTC+00:00)

Tiangong - Pass Details

Date: 04 December 2022
Orbit: 383 x 386 km, 41.5° (Epoch: 30 January)

Event Time Altitude Azimuth Distance (km) Brightness Sun altitude
Rises 01:03:47 0° 275° (W) 2,256 3.1 -19.7°
Reaches altitude 10° 01:05:55 10° 282° (WNW) 1,404 1.6 -20.1°
Enters shadow 01:08:30 40° 329° (NNW) 580 -1.2 -20.6°
